KB2UHF-8 Weather Reports


Display with metric or nautical units.
time (UTC)temp
F
wind
direction
speed
MPH
gust
MPH
rain 1hr
in
rain 24hr
in
rain mn
in
humidity
%
barometer
mb
20260904121517 74 0.0 0.0 0.00 0.52 0.05 96 1012.3
20260904120517 74 0.0 0.0 0.00 0.52 0.05 96 1012.4
20260904115517 74 45 1.0 3.0 0.00 0.52 0.05 96 1012.5
20260904114557 74 0.0 0.0 0.05 0.52 0.05 96 1012.3
20260904113518 74 0.0 0.0 0.05 0.52 0.05 95 1012.4
20260904112538 74 0.0 3.0 0.05 0.52 0.05 95 1012.2
20260904111517 75 180 1.0 5.0 0.05 0.52 0.05 95 1012.3
20260904110537 75 180 3.0 6.0 0.05 0.52 0.05 95 1012.1
20260904105517 75 248 1.0 4.0 0.05 0.52 0.05 95 1012.3
20260904104537 75 315 2.0 4.0 0.00 0.47 0.00 94 1012.4
20260904103518 75 248 1.0 3.0 0.00 0.47 0.00 94 1012.1
20260904102517 75 225 2.0 7.0 0.00 0.47 0.00 94 1012.1
20260904101517 75 225 2.0 7.0 0.00 0.47 0.00 94 1012.1
20260904100517 75 203 1.0 5.0 0.00 0.47 0.00 95 1012.2
20260904095537 76 180 1.0 6.0 0.00 0.47 0.00 95 1012.1
20260904094517 76 0.0 2.0 0.00 0.47 0.00 95 1012.4
20260904093517 76 180 1.0 3.0 0.00 0.47 0.00 95 1012.3
20260904092516 76 203 1.0 6.0 0.00 0.47 0.00 95 1012.4
20260904091516 76 180 1.0 4.0 0.00 0.47 0.00 95 1012.5
20260904090517 76 0.0 2.0 0.00 0.47 0.00 95 1012.5
20260904085516 76 0.0 2.0 0.00 0.47 0.00 94 1012.3
20260904084516 76 225 1.0 5.0 0.00 0.47 0.00 95 1012.3
20260904083558 76 180 2.0 4.0 0.00 0.47 0.00 95 1012.3
20260904082516 76 180 1.0 6.0 0.00 0.47 0.00 95 1012.3
20260904081518 76 225 1.0 4.0 0.00 0.47 0.00 95 1012.2
20260904080516 76 225 2.0 8.0 0.00 0.47 0.00 95 1012.2
20260904075516 76 225 2.0 4.0 0.00 0.47 0.00 95 1012.1
20260904074516 76 203 1.0 4.0 0.00 0.47 0.00 95 1012.0
20260904073518 76 203 1.0 5.0 0.00 0.47 0.00 95 1012.1
20260904072516 76 248 1.0 8.0 0.00 0.47 0.00 95 1012.0
20260904071537 76 225 2.0 6.0 0.00 0.47 0.00 96 1011.8
20260904070536 76 225 2.0 6.0 0.00 0.47 0.00 96 1011.8
20260904065536 76 225 3.0 9.0 0.00 0.47 0.00 97 1011.8
20260904064516 75 225 2.0 8.0 0.00 0.47 0.00 97 1011.8
20260904063518 75 225 1.0 4.0 0.00 0.47 0.00 97 1011.9
20260904062516 75 225 2.0 4.0 0.00 0.47 0.00 97 1012.0
20260904061536 75 225 1.0 4.0 0.00 0.47 0.00 96 1012.0
20260904060516 75 0.0 2.0 0.00 0.47 0.00 96 1012.1
20260904055516 75 0.0 2.0 0.00 0.47 0.00 96 1012.3
20260904054516 75 0.0 4.0 0.00 0.47 0.00 96 1012.4
20260904053536 75 135 3.0 4.0 0.00 0.47 0.00 96 1012.3
20260904052516 75 90 2.0 4.0 0.00 0.47 0.00 96 1012.6
20260904051536 75 113 3.0 6.0 0.00 0.47 0.00 96 1012.7
20260904050517 75 158 1.0 5.0 0.01 0.47 0.00 96 1013.0
20260904045517 75 158 2.0 8.0 0.02 0.47 0.47 96 1012.9
20260904044517 75 113 6.0 10.0 0.02 0.47 0.47 96 1012.8
20260904043517 75 135 6.0 13.0 0.02 0.47 0.47 96 1012.7
20260904042517 75 113 6.0 11.0 0.02 0.47 0.47 96 1012.7
20260904041517 75 135 4.0 8.0 0.02 0.47 0.47 96 1012.9
20260904040517 75 113 4.0 7.0 0.01 0.46 0.46 95 1013.2
20260904035517 75 113 5.0 9.0 0.00 0.45 0.45 95 1013.3
20260904034517 75 113 6.0 9.0 0.00 0.45 0.45 95 1013.1
20260904033517 75 113 6.0 11.0 0.00 0.45 0.45 95 1013.2
20260904032516 75 113 7.0 11.0 0.00 0.45 0.45 95 1013.3
20260904031517 75 90 6.0 9.0 0.00 0.45 0.45 95 1013.3
20260904030557 75 90 5.0 9.0 0.00 0.45 0.45 95 1013.2
20260904025538 75 90 5.0 8.0 0.00 0.45 0.45 95 1013.3
20260904024516 75 90 4.0 9.0 0.00 0.45 0.45 94 1013.3
20260904023518 76 113 5.0 8.0 0.00 0.45 0.45 94 1013.2
20260904022516 76 113 6.0 9.0 0.00 0.45 0.45 94 1013.2
20260904021517 76 113 5.0 9.0 0.00 0.45 0.45 94 1013.2
20260904020537 76 113 5.0 8.0 0.00 0.45 0.45 94 1013.2
20260904015517 76 113 5.0 9.0 0.00 0.45 0.45 93 1013.2
20260904014517 76 113 6.0 9.0 0.00 0.45 0.45 94 1012.9
20260904013517 76 113 6.0 9.0 0.00 0.45 0.45 93 1012.8
20260904012517 76 113 5.0 7.0 0.00 0.45 0.45 93 1012.5
20260904011516 76 113 5.0 8.0 0.00 0.45 0.45 93 1012.4
20260904010557 76 113 5.0 8.0 0.00 0.45 0.45 92 1012.3
20260904005516 77 113 5.0 7.0 0.00 0.45 0.45 92 1012.2
20260904004516 77 113 5.0 8.0 0.00 0.45 0.45 91 1012.4
20260904003516 77 90 4.0 7.0 0.00 0.45 0.45 90 1012.5
20260904002516 77 90 3.0 6.0 0.00 0.45 0.45 89 1012.6
20260904001516 78 90 4.0 7.0 0.00 0.45 0.45 89 1012.5
20260904000516 78 113 5.0 8.0 0.00 0.45 0.45 88 1012.6
20260903235536 79 90 4.0 6.0 0.00 0.45 0.45 87 1012.7
20260903234517 79 113 4.0 8.0 0.00 0.45 0.45 87 1012.7
20260903233516 80 113 3.0 8.0 0.00 0.45 0.45 86 1012.7
20260903232516 80 113 5.0 8.0 0.00 0.45 0.45 86 1012.8
20260903231516 80 90 5.0 9.0 0.00 0.45 0.45 85 1012.6
20260903230516 80 113 4.0 7.0 0.00 0.45 0.45 84 1013.1
20260903225517 80 90 4.0 7.0 0.00 0.45 0.45 84 1013.0
20260903224516 80 90 6.0 10.0 0.00 0.45 0.45 83 1013.0
20260903223516 81 90 4.0 7.0 0.00 0.45 0.45 83 1012.8
20260903222516 81 90 3.0 6.0 0.00 0.45 0.45 83 1012.9
20260903221518 81 90 3.0 6.0 0.00 0.45 0.45 81 1012.9
20260903220518 81 0.0 2.0 0.00 0.45 0.45 83 1013.0
20260903215516 80 135 2.0 5.0 0.00 0.45 0.45 83 1013.2
20260903214517 80 158 2.0 5.0 0.00 0.45 0.45 82 1013.1
20260903213516 81 135 4.0 8.0 0.00 0.45 0.45 82 1012.9
20260903212516 81 135 3.0 8.0 0.00 0.45 0.45 81 1013.1
20260903211516 81 135 5.0 11.0 0.00 0.45 0.45 80 1013.0
20260903210516 81 135 3.0 8.0 0.00 0.45 0.45 84 1013.0
20260903205536 80 135 3.0 7.0 0.00 0.45 0.45 83 1013.0
20260903204516 79 135 2.0 4.0 0.00 0.45 0.45 84 1013.1
20260903203536 79 135 4.0 9.0 0.00 0.45 0.45 84 1013.2
20260903202516 79 113 4.0 8.0 0.00 0.45 0.45 83 1013.2
20260903201536 79 113 4.0 6.0 0.00 0.45 0.45 84 1013.2
20260903200516 79 90 2.0 4.0 0.00 0.45 0.45 83 1013.4
20260903195516 79 135 1.0 4.0 0.00 0.45 0.45 83 1013.7
20260903194516 79 0.0 2.0 0.00 0.45 0.45 84 1013.8
20260903193517 79 68 1.0 3.0 0.00 0.45 0.45 85 1013.5
20260903192536 78 0.0 2.0 0.00 0.45 0.45 86 1013.4
20260903191536 78 135 2.0 5.0 0.00 0.45 0.45 85 1013.1
20260903190516 77 135 4.0 8.0 0.00 0.45 0.45 87 1013.0
20260903185516 77 135 5.0 10.0 0.00 0.45 0.45 90 1013.0
20260903184516 76 90 4.0 6.0 0.00 0.45 0.45 91 1013.0
20260903183516 75 90 3.0 7.0 0.00 0.45 0.45 93 1013.2
20260903182516 75 90 1.0 4.0 0.00 0.45 0.45 94 1013.2
20260903181516 74 68 2.0 4.0 0.00 0.45 0.45 95 1013.5
20260903180516 73 135 4.0 8.0 0.00 0.45 0.45 95 1013.0
20260903175516 73 135 5.0 9.0 0.00 0.45 0.45 95 1013.1
20260903174516 73 135 4.0 8.0 0.00 0.45 0.45 97 1013.2
20260903173516 72 135 6.0 10.0 0.00 0.45 0.45 97 1013.0
20260903172516 72 135 5.0 10.0 0.00 0.45 0.45 97 1013.2
20260903171516 72 158 3.0 6.0 0.02 0.45 0.45 98 1013.7
20260903170536 71 158 2.0 5.0 0.04 0.45 0.45 98 1013.5
20260903165516 71 225 2.0 5.0 0.10 0.45 0.45 98 1013.9
20260903164536 70 203 1.0 6.0 0.14 0.45 0.45 98 1014.1
20260903163516 70 135 4.0 8.0 0.14 0.45 0.45 98 1013.8
20260903162516 70 0.0 0.0 0.16 0.45 0.45 97 1014.2
20260903161516 70 158 1.0 5.0 0.16 0.43 0.43 97 1014.4
20260903160516 70 180 3.0 6.0 0.15 0.41 0.41 97 1014.1
20260903155536 70 68 2.0 4.0 0.09 0.35 0.35 97 1013.5
20260903154516 70 135 2.0 4.0 0.06 0.31 0.31 97 1013.6
20260903153516 69 135 5.0 9.0 0.07 0.31 0.31 97 1013.4
20260903152536 69 113 3.0 6.0 0.05 0.29 0.29 97 1014.0
20260903151517 69 0.0 3.0 0.03 0.27 0.27 97 1014.3
20260903150536 70 293 3.0 8.0 0.02 0.26 0.26 97 1014.4
20260903145516 69 135 1.0 3.0 0.03 0.26 0.26 97 1013.8
20260903144516 69 68 2.0 6.0 0.04 0.25 0.25 97 1013.3
20260903143516 70 270 5.0 9.0 0.05 0.24 0.24 97 1013.3
20260903142516 69 248 1.0 3.0 0.09 0.24 0.24 97 1013.4
20260903141516 69 270 2.0 6.0 0.11 0.24 0.24 96 1014.0
20260903140516 69 113 3.0 7.0 0.13 0.24 0.24 96 1013.5
20260903135515 69 90 3.0 4.0 0.16 0.23 0.23 96 1014.1
20260903134516 69 270 2.0 7.0 0.16 0.21 0.21 96 1014.8
20260903133536 70 248 5.0 8.0 0.17 0.19 0.19 96 1015.7
20260903132516 70 248 6.0 11.0 0.14 0.15 0.15 95 1015.9
20260903131536 70 225 7.0 11.0 0.13 0.13 0.13 95 1015.8
20260903130515 70 270 8.0 14.0 0.11 0.11 0.11 94 1015.2
20260903125515 71 248 7.0 13.0 0.07 0.07 0.07 93 1014.9
20260903124516 71 248 7.0 14.0 0.05 0.05 0.05 94 1014.8
20260903123556 71 270 8.0 15.0 0.02 0.02 0.02 94 1014.0
20260903122515 71 270 7.0 15.0 0.01 0.01 0.01 93 1014.2